Weather History for VTCC - May, 2013

Change the Weather History Date:

Monday, May 6, 2013

  Actual Average Record
Temperature  
Mean Temperature 84 °F -  
Max Temperature 95 °F 89 °F 100 °F (2015)
Min Temperature 73 °F 73 °F 69 °F (2006)
Cooling Degree Days 19    
Growing Degree Days 34 (Base 50)    
Moisture  
Dew Point 68 °F    
Average Humidity 66    
Maximum Humidity 89    
Minimum Humidity 36    
Precipitation  
Precipitation 0.67 in 0.20 in - ()
Sea Level Pressure  
Sea Level Pressure 29.87 in    
Wind  
Wind Speed 5 mph ()    
Max Wind Speed 32 mph    
Max Gust Speed 21 mph    
Visibility 6.0 miles    
Events Rain , Thunderstorm    
Averages and records for this station are not official NWS values.
T = Trace of Precipitation, MM = Missing Value Source: Averaged Metar Reports

Daily Weather History Graph

Daily Weather History Graph

Search for Another Location

Airport or City:

Trip Planner

Search our weather history database for the weather conditions in past years. The results will help you decide how hot, cold, wet, or windy it might be!

Date:

Astronomy

May. 06, 2013 Rise Set
Actual Time 5:53 AM ICT 6:47 PM ICT
Civil Twilight 5:30 AM ICT 7:10 PM ICT
Nautical Twilight 5:03 AM ICT 7:38 PM ICT
Astronomical Twilight 4:36 AM ICT 8:05 PM ICT
Moon 3:09 AM ICT (5/6) 3:41 PM ICT (5/6)
Length of Visible Light 13h 39m
Length of Day
12h 53m
Waning Crescent, 14% of the Moon is Illuminated
May 6
Waning Crescent
May 10
New
May 18
First Quarter
May 25
Full
Jun 1
Last Quarter

Hourly Weather History & Observations

Time (ICT) Temp. Heat Index Dew Point Humidity Pressure Visibility Wind Dir Wind Speed Gust Speed Precip Events Conditions
12:00 AM 77.0 °F - 68.0 °F 74% 29.95 in 6.2 mi SW 5.8 mph - N/A   Mostly Cloudy
12:30 AM 77.0 °F - 68.0 °F 74% 29.92 in 6.2 mi SW 8.1 mph - N/A   Mostly Cloudy
1:00 AM 78 °F - 70 °F 69% 29.88 in 7 mi Calm Calm - -   Partly Cloudy
1:30 AM 77.0 °F - 69.8 °F 78% 29.92 in 5.0 mi WNW 2.3 mph - N/A Rain Light Rain
2:00 AM 77.0 °F - 69.8 °F 78% 29.92 in 5.0 mi Calm Calm - N/A Rain Light Rain
3:30 AM 75.2 °F - 69.8 °F 83% 29.92 in 6.2 mi SW 3.5 mph - N/A   Scattered Clouds
4:30 AM 73.4 °F - 69.8 °F 88% 29.92 in 6.2 mi ENE 2.3 mph - N/A   Scattered Clouds
5:00 AM 73.4 °F - 69.8 °F 88% 29.92 in 6.2 mi ENE 3.5 mph - N/A   Scattered Clouds
5:30 AM 73.4 °F - 69.8 °F 88% 29.92 in 6.2 mi NE 3.5 mph - N/A   Scattered Clouds
6:00 AM 73.4 °F - 69.8 °F 88% 29.92 in 6.2 mi East 3.5 mph - N/A   Mostly Cloudy
6:30 AM 73.4 °F - 69.8 °F 88% 29.95 in 6.2 mi SE 2.3 mph - N/A   Mostly Cloudy
7:00 AM 75 °F - 72 °F 89% 29.90 in 6 mi Calm Calm - -   Partly Cloudy
7:00 AM 75.2 °F - 69.8 °F 83% 29.95 in 6.2 mi SSW 1.2 mph - N/A   Mostly Cloudy
7:30 AM 75.2 °F - 69.8 °F 83% 29.95 in 6.2 mi WSW 2.3 mph - N/A   Scattered Clouds
8:00 AM 77.0 °F - 69.8 °F 78% 29.95 in 6.2 mi WSW 3.5 mph - N/A   Scattered Clouds
8:30 AM 77.0 °F - 69.8 °F 78% 29.98 in 6.2 mi SW 3.5 mph - N/A   Mostly Cloudy
9:00 AM 78.8 °F - 69.8 °F 74% 29.98 in 6.2 mi East 2.3 mph - N/A   Scattered Clouds
9:30 AM 78.8 °F - 69.8 °F 74% 29.98 in 6.2 mi South 3.5 mph - N/A   Scattered Clouds
10:00 AM 82.4 °F 86.3 °F 69.8 °F 66% 29.98 in 6.2 mi SE 4.6 mph - N/A   Partly Cloudy
10:30 AM 82.4 °F 85.4 °F 68.0 °F 62% 29.95 in 6.2 mi NNE 3.5 mph - N/A   Partly Cloudy
11:00 AM 86.0 °F 89.4 °F 68.0 °F 55% 29.95 in 6.2 mi ESE 5.8 mph - N/A   Partly Cloudy
11:30 AM 87.8 °F 90.4 °F 66.2 °F 49% 29.95 in 6.2 mi South 3.5 mph - N/A   Partly Cloudy
12:00 PM 87.8 °F 90.4 °F 66.2 °F 49% 29.92 in 6.2 mi SSE 4.6 mph - N/A   Partly Cloudy
12:30 PM 87.8 °F 89.4 °F 64.4 °F 46% 29.89 in 6.2 mi SSE 6.9 mph - N/A   Partly Cloudy
1:00 PM 91 °F - 68 °F 37% 29.80 in 6 mi Calm Calm - -   Scattered Clouds
1:00 PM 89.6 °F 91.1 °F 64.4 °F 43% 29.86 in 6.2 mi SSE 5.8 mph - N/A   Partly Cloudy
1:30 PM 91.4 °F 92.1 °F 62.6 °F 38% 29.86 in 6.2 mi ESE 5.8 mph - N/A   Partly Cloudy
2:00 PM 91.4 °F 92.1 °F 62.6 °F 38% 29.83 in 6.2 mi SSE 8.1 mph - N/A   Partly Cloudy
2:30 PM 93.2 °F 94.9 °F 64.4 °F 38% 29.80 in 6.2 mi ESE 5.8 mph - N/A   Partly Cloudy
3:00 PM 93.2 °F 94.1 °F 62.6 °F 36% 29.77 in 6.2 mi ESE 5.8 mph - N/A Thunderstorm Thunderstorm
3:30 PM 91.4 °F 93.2 °F 64.4 °F 41% 29.77 in 6.2 mi NNE 9.2 mph 20.7 mph N/A Rain , Thunderstorm Thunderstorms and Rain
4:00 PM 80.6 °F 81.8 °F 62.6 °F 54% 29.80 in 4.3 mi NNW 8.1 mph - N/A Rain , Thunderstorm Thunderstorms and Rain
4:30 PM 77.0 °F - 64.4 °F 65% 29.77 in 4.3 mi West 13.8 mph - N/A Rain , Thunderstorm Light Thunderstorms and Rain
5:00 PM 80.6 °F 82.7 °F 66.2 °F 61% 29.74 in 6.2 mi WSW 8.1 mph - N/A   Scattered Clouds
5:30 PM 80.6 °F 82.7 °F 66.2 °F 61% 29.74 in 6.2 mi WSW 9.2 mph - N/A   Partly Cloudy
6:00 PM 82.4 °F 84.6 °F 66.2 °F 58% 29.74 in 6.2 mi WSW 6.9 mph - N/A   Partly Cloudy
6:30 PM 82.4 °F 85.4 °F 68.0 °F 62% 29.74 in 6.2 mi SSE 4.6 mph - N/A   Partly Cloudy
7:00 PM 81 °F - 74 °F 72% 29.70 in 6 mi Calm Calm - -   Partly Cloudy
7:00 PM 80.6 °F 83.2 °F 68.0 °F 65% 29.74 in 6.2 mi East 2.3 mph - N/A   Partly Cloudy
7:30 PM 80.6 °F 83.9 °F 69.8 °F 70% 29.77 in 6.2 mi SW 4.6 mph - N/A   Partly Cloudy
8:00 PM 78.8 °F - 71.6 °F 78% 29.77 in 6.2 mi West 6.9 mph - N/A   Scattered Clouds
8:30 PM 80.6 °F 83.9 °F 69.8 °F 70% 29.80 in 6.2 mi West 8.1 mph - N/A   Scattered Clouds
9:00 PM 80.6 °F 83.9 °F 69.8 °F 70% 29.83 in 6.2 mi WSW 5.8 mph - N/A   Partly Cloudy
9:30 PM 82.4 °F 85.4 °F 68.0 °F 62% 29.86 in 6.2 mi North 9.2 mph - N/A   Scattered Clouds
10:00 PM 82.4 °F 84.6 °F 66.2 °F 58% 29.86 in 6.2 mi North 32.2 mph - N/A   Mostly Cloudy
10:30 PM 77.0 °F - 66.2 °F 69% 29.89 in 6.2 mi North 19.6 mph - N/A   Mostly Cloudy
11:00 PM 75.2 °F - 68.0 °F 78% 29.89 in 5.0 mi NE 10.4 mph - N/A Rain Light Rain
11:30 PM 75.2 °F - 68.0 °F 78% 29.89 in 5.6 mi ENE 5.8 mph - N/A Rain Light Rain